Regional Weather Roundup
Issued by NWS

Home | Current Version | Previous Version | Text Only | Print | Product List | Glossary On
Versions: 1 2 3 4 5 6 7 8 9 10 11 12 13 14 15 16 17 18 19 20 21 22 23 24 25 26 27 28 29 30 31 32 33 34 35 36 37 38 39 40 41 42 43 44 45 46 47 48 49 50
000
ASUS43 KBIS 291102
RWRND

NORTH DAKOTA REGIONAL WEATHER ROUNDUP
NATIONAL WEATHER SERVICE BISMARCK ND
600 AM CDT FRI MAY 29 2015

NOTE: "FAIR" INDICATES FEW OR NO CLOUDS BELOW 12,000 FEET WITH NO
SIGNIFICANT WEATHER AND/OR OBSTRUCTIONS TO VISIBILITY.


NDZ001>003-009>011-017-291200-
NORTHWEST NORTH DAKOTA

CITY           SKY/WX    TMP DP  RH WIND       PRES   REMARKS
WILLISTON      CLOUDY    45  32  60 N15G22    30.25R
MINOT          CLOUDY    46  37  71 N15       30.17R
MINOT AFB      CLOUDY    47  46  99 N16       30.17R
$$

NDZ018>021-031>035-040>046-291200-
SOUTHWEST NORTH DAKOTA

CITY           SKY/WX    TMP DP  RH WIND       PRES   REMARKS
BISMARCK       CLOUDY    51  46  83 N15G23    30.10R
DICKINSON      CLOUDY    44  42  93 N15G23    30.16R FOG
GARRISON         N/A     47  40  76 N13G23    30.14R
HETTINGER ARPT CLOUDY    46  43  89 N16       30.14R
$$

NDZ004>008-012>016-024-026-027-054-291200-
NORTHEAST NORTH DAKOTA

CITY           SKY/WX    TMP DP  RH WIND       PRES   REMARKS
GRAND FORKS    CLOUDY    47  43  86 N28G38    30.01R
GRND FRKS AFB  CLOUDY    47  42  81 N24G32    30.02R
DEVILS LAKE    CLOUDY    46  37  71 N24       30.08R
$$

NDZ022-023-025-028>030-036>039-047>053-291200-
SOUTHEAST NORTH DAKOTA

CITY           SKY/WX    TMP DP  RH WIND       PRES   REMARKS
FARGO          CLOUDY    52  49  89 N28G36    29.93R
JAMESTOWN      CLOUDY    51  47  86 N25G31    30.01R
$$




USA.gov is the U.S. government's official web portal to all federal, state and local government web resources and services.